METEOR 1-19

导读 | 星芒AI

METEOR 1-19 是苏联于1980年发射的气象卫星,属于 METEOR 系列。该系列卫星主要用于气象观测和环境监测,搭载了多种遥感仪器,能够收集云层、地表温度和大气参数等数据。METEOR 1-19 在轨道上运行期间,为苏联的天气预报和气候研究提供了重要支持。该卫星采用近极地轨道,确保对全球范围的覆盖。其设计和任务延续了早期 METEOR 卫星的成功经验,为后续俄罗斯气象卫星的发展奠定了基础。

基本信息
目录编号:
7490
目录名称:
METEOR 1-19
国际标识:
1974-083A
轨道中心:
EARTH
卫星名称:
METEOR 1-19
卫星全名:
--
卫星状态:
在轨 (已飞行18674 天)
发射日期:
1974-10-28 UTC
国别 :
俄罗斯(独联体) (CIS)
星等 :
--
轨道信息
数据来源 国际轨道数据 AOE轨道数据
星历时间 2025-12-13T07:54:38+0800
9小时前
查看轨道信息
2025-12-10T13:00:00+0800
3天前
查看轨道信息
半长轴 7235.687km 7235.688km
偏心率 0.002972 0.0029961
轨道倾角 81.188° 81.188°
近地点辐角 248.580° 256.759°
升交点赤经 320.385° 323.120°
平近点角 111.220° 354.018°
近地点 836.047km 835.874km
远地点 879.057km 879.232km
周期 102.089分钟 102.089分钟
每日圈数 14.105327 14.105324
详细信息
使用方式:
暂无
2D轨道图
3D轨道图
轨道高度分析图
轨道倾角分析图
轨道综合分析图
查看轨道综合分析图